This is the latest recevied weather packets stored in our database for station/object N3SBK. If no packets are shown the sender has not sent any weather packets the latest 10 day(s).
| Time | Temp. | Humidity | Pressure | Rain* | Wind** | Luminosity | Snow |
|---|---|---|---|---|---|---|---|
| 1777721958 | 2.22° C | 94% | 1006.9 hPa | 0 mm | - | 60 W/m² | - |
| 1777721656 | 2.22° C | 94% | 1006.9 hPa | 0 mm | - | 42 W/m² | - |
| 1777721354 | 2.22° C | 94% | 1006.9 hPa | 0 mm | - | 33 W/m² | - |
| 1777721051 | 2.22° C | 94% | 1006.8 hPa | 0 mm | - | 27 W/m² | - |
| 1777720749 | 2.22° C | 94% | 1006.5 hPa | 0 mm | - | 21 W/m² | - |
| 1777720445 | 2.22° C | 94% | 1006.6 hPa | 0 mm | - | 20 W/m² | - |
| 1777720143 | 2.22° C | 94% | 1006.4 hPa | 0 mm | - | 20 W/m² | - |
| 1777719841 | 2.22° C | 94% | 1006.6 hPa | 0 mm | - | 21 W/m² | - |
| 1777719538 | 2.22° C | 94% | 1006.4 hPa | 0 mm | - | 21 W/m² | - |
| 1777719235 | 2.22° C | 94% | 1006.7 hPa | 0 mm | - | 17 W/m² | - |
| 1777718933 | 2.22° C | 94% | 1006.7 hPa | 0 mm | - | 13 W/m² | - |
| 1777718630 | 2.22° C | 94% | 1006.6 hPa | 0 mm | - | 10 W/m² | - |
| 1777718327 | 2.22° C | 93% | 1006.7 hPa | 0 mm | - | 9 W/m² | - |
| 1777718024 | 2.22° C | 93% | 1006.3 hPa | 0 mm | - | 8 W/m² | - |
| 1777717721 | 2.22° C | 93% | 1006.5 hPa | 0 mm | - | 6 W/m² | - |
| 1777717418 | 2.22° C | 93% | 1006.3 hPa | 0 mm | - | 4 W/m² | - |
| 1777717115 | 2.78° C | 92% | 1006.4 hPa | 0 mm | - | 2 W/m² | - |
| 1777716813 | 2.78° C | 92% | 1006.4 hPa | 0 mm | - | 1 W/m² | - |
| 1777716512 | 2.78° C | 92% | 1006.4 hPa | 0 mm | - | 1 W/m² | - |
| 1777716211 | 2.78° C | 92% | 1006.6 hPa | 0 mm | - | 0 W/m² | - |
| 1777715907 | 2.78° C | 92% | 1006.6 hPa | 0 mm | - | 0 W/m² | - |
| 1777715605 | 3.33° C | 92% | 1006.4 hPa | 0 mm | - | 0 W/m² | - |
| 1777715303 | 3.33° C | 92% | 1006.6 hPa | 0 mm | - | 0 W/m² | - |
| 1777715000 | 3.33° C | 92% | 1006.3 hPa | 0 mm | - | 0 W/m² | - |
| 1777714698 | 3.33° C | 92% | 1006.4 hPa | 0 mm | - | 0 W/m² | - |
* Rain latest hour (hover to see other rain measurements)
** Current wind speed in m/s (hover to see current wind gust speed)